When you browse on this site, cookies collect data to enhance your experience and personalize the content and advertising you see.
Visit our Privacy Policy to learn more. By continuing to use the site, you agree to this use of cookies and data.
  • In Spain
  • List of Countries
  • For 7 days
  • Water Temperature
  • Weather Map
  • Weather Widgets
  • user-avatar
    Login

    Hourly Weather Wagadugu

    Today, 5 April, Sunday

    Time Temperature Precipitation Wind Pressure Humidity
    00:00 +33°C° 0 mm 3 mps 731 mmHg 15%
    01:00 +32°C° 0 mm 2 mps 730 mmHg 22%
    02:00 +31°C° 0 mm 2 mps 730 mmHg 29%
    03:00 +30°C° 0 mm 2 mps 730 mmHg 36%
    04:00 +30°C° 0 mm 2 mps 730 mmHg 41%
    05:00 +29°C° 0 mm 2 mps 731 mmHg 46%
    06:00 +29°C° 0 mm 1 mps 732 mmHg 58%
    07:00 +31°C° 0 mm 2 mps 732 mmHg 54%
    08:00 +35°C° 0 mm 4 mps 732 mmHg 50%
    09:00 +37°C° 0 mm 5 mps 733 mmHg 46%
    10:00 +40°C° 0 mm 4 mps 733 mmHg 38%
    11:00 +42°C° 0 mm 3 mps 732 mmHg 29%
    12:00 +43°C° 0 mm 3 mps 732 mmHg 22%
    13:00 +44°C° 0 mm 3 mps 731 mmHg 19%
    14:00 +45°C° 0 mm 3 mps 730 mmHg 15%
    15:00 +46°C° 0 mm 3 mps 729 mmHg 12%
    16:00 +45°C° 0 mm 3 mps 729 mmHg 13%
    17:00 +43°C° 0 mm 2 mps 729 mmHg 13%
    18:00 +41°C° 0 mm 2 mps 729 mmHg 13%
    19:00 +40°C° 0 mm 2 mps 730 mmHg 12%
    20:00 +39°C° 0 mm 3 mps 730 mmHg 11%
    21:00 +38°C° 0 mm 3 mps 731 mmHg 11%
    22:00 +37°C° 0 mm 2 mps 731 mmHg 11%
    23:00 +35°C° 0 mm 2 mps 730 mmHg 11%

    Tomorrow, 6 April, Monday

    Time Temperature Precipitation Wind Pressure Humidity
    00:00 +33°C° 0 mm 1 mps 730 mmHg 11%
    01:00 +32°C° 0 mm 1 mps 730 mmHg 12%
    02:00 +31°C° 0 mm 1 mps 729 mmHg 13%
    03:00 +30°C° 0 mm 1 mps 729 mmHg 13%
    04:00 +30°C° 0 mm 1 mps 729 mmHg 13%
    05:00 +30°C° 0 mm 1 mps 730 mmHg 13%
    06:00 +29°C° 0 mm 2 mps 730 mmHg 14%
    07:00 +34°C° 0 mm 3 mps 731 mmHg 11%
    08:00 +37°C° 0 mm 3 mps 732 mmHg 8%
    09:00 +42°C° 0 mm 4 mps 733 mmHg 6%
    10:00 +43°C° 0 mm 4 mps 732 mmHg 5%
    11:00 +45°C° 0 mm 4 mps 732 mmHg 5%
    12:00 +48°C° 0 mm 5 mps 731 mmHg 4%
    13:00 +48°C° 0 mm 4 mps 731 mmHg 4%
    14:00 +48°C° 0 mm 4 mps 730 mmHg 4%
    15:00 +49°C° 0 mm 4 mps 729 mmHg 4%
    16:00 +46°C° 0 mm 3 mps 729 mmHg 5%
    17:00 +44°C° 0 mm 3 mps 728 mmHg 5%
    18:00 +41°C° 0 mm 2 mps 728 mmHg 6%
    19:00 +39°C° 0 mm 2 mps 728 mmHg 7%
    20:00 +35°C° 0 mm 1 mps 729 mmHg 8%
    21:00 +33°C° 0 mm 1 mps 729 mmHg 9%
    22:00 +32°C° 0 mm 1 mps 729 mmHg 10%
    23:00 +31°C° 0 mm 1 mps 729 mmHg 11%

    Day after tomorrow, 7 April, Tuesday

    Time Temperature Precipitation Wind Pressure Humidity
    00:00 +31°C° 0 mm 1 mps 730 mmHg 11%
    01:00 +30°C° 0 mm 2 mps 729 mmHg 17%
    02:00 +30°C° 0 mm 2 mps 729 mmHg 22%
    03:00 +30°C° 0 mm 3 mps 729 mmHg 28%
    04:00 +30°C° 0 mm 3 mps 730 mmHg 35%
    05:00 +29°C° 0 mm 3 mps 730 mmHg 42%
    06:00 +29°C° 0 mm 4 mps 730 mmHg 50%
    07:00 +32°C° 0 mm 4 mps 731 mmHg 46%
    08:00 +34°C° 0 mm 5 mps 732 mmHg 42%
    09:00 +37°C° 0 mm 5 mps 732 mmHg 38%
    10:00 +38°C° 0 mm 4 mps 732 mmHg 31%
    11:00 +40°C° 0 mm 3 mps 731 mmHg 24%
    12:00 +42°C° 0 mm 2 mps 731 mmHg 17%
    13:00 +43°C° 0 mm 2 mps 730 mmHg 15%
    14:00 +44°C° 0 mm 1 mps 730 mmHg 12%
    15:00 +45°C° 0 mm 1 mps 729 mmHg 10%
    16:00 +43°C° 0 mm 1 mps 729 mmHg 11%
    17:00 +42°C° 0 mm 1 mps 729 mmHg 11%
    18:00 +40°C° 0 mm 1 mps 729 mmHg 12%
    19:00 +39°C° 0 mm 2 mps 729 mmHg 11%
    20:00 +38°C° 0 mm 2 mps 729 mmHg 10%
    21:00 +36°C° 0 mm 3 mps 730 mmHg 8%
    22:00 +35°C° 0 mm 3 mps 730 mmHg 8%
    23:00 +34°C° 0 mm 2 mps 730 mmHg 8%

    8 April, Wednesday

    Time Temperature Precipitation Wind Pressure Humidity
    00:00 +34°C° 0 mm 2 mps 730 mmHg 8%
    01:00 +32°C° 0 mm 2 mps 730 mmHg 14%
    02:00 +31°C° 0 mm 3 mps 729 mmHg 20%
    03:00 +30°C° 0 mm 3 mps 729 mmHg 26%
    04:00 +30°C° 0 mm 3 mps 729 mmHg 29%
    05:00 +30°C° 0 mm 3 mps 729 mmHg 33%
    06:00 +30°C° 0 mm 3 mps 730 mmHg 37%
    07:00 +33°C° 0 mm 4 mps 730 mmHg 35%
    08:00 +35°C° 0 mm 4 mps 731 mmHg 33%
    09:00 +39°C° 0 mm 5 mps 731 mmHg 31%
    10:00 +40°C° 0 mm 4 mps 731 mmHg 24%
    11:00 +42°C° 0 mm 3 mps 730 mmHg 18%
    12:00 +44°C° 0 mm 3 mps 730 mmHg 11%
    13:00 +43°C° 0 mm 2 mps 729 mmHg 9%
    14:00 +45°C° 0 mm 2 mps 729 mmHg 8%
    15:00 +45°C° 0 mm 2 mps 728 mmHg 6%
    16:00 +43°C° 0 mm 2 mps 728 mmHg 7%
    17:00 +41°C° 0 mm 2 mps 728 mmHg 7%
    18:00 +40°C° 0 mm 2 mps 727 mmHg 7%
    19:00 +38°C° 0 mm 2 mps 728 mmHg 8%
    20:00 +36°C° 0 mm 2 mps 728 mmHg 9%
    21:00 +34°C° 0 mm 2 mps 728 mmHg 10%
    22:00 +34°C° 0 mm 2 mps 729 mmHg 10%
    23:00 +32°C° 0 mm 2 mps 729 mmHg 11%

    9 April, Thursday

    Time Temperature Precipitation Wind Pressure Humidity
    00:00 +32°C° 0 mm 1 mps 729 mmHg 11%
    01:00 +31°C° 0 mm 2 mps 729 mmHg 15%
    02:00 +31°C° 0 mm 3 mps 729 mmHg 20%
    03:00 +30°C° 0 mm 3 mps 729 mmHg 24%
    04:00 +30°C° 0 mm 3 mps 729 mmHg 28%
    05:00 +30°C° 0 mm 3 mps 730 mmHg 32%
    06:00 +30°C° 0 mm 3 mps 730 mmHg 37%
    07:00 +33°C° 0 mm 4 mps 731 mmHg 38%
    08:00 +34°C° 0 mm 5 mps 731 mmHg 40%
    09:00 +36°C° 0 mm 7 mps 732 mmHg 42%
    10:00 +39°C° 0 mm 6 mps 732 mmHg 37%
    11:00 +40°C° 0 mm 5 mps 731 mmHg 31%
    12:00 +42°C° 0 mm 4 mps 731 mmHg 25%
    13:00 +43°C° 0 mm 4 mps 730 mmHg 23%
    14:00 +43°C° 0 mm 3 mps 729 mmHg 20%
    15:00 +43°C° 0 mm 2 mps 728 mmHg 18%
    16:00 +42°C° 0.3 mm 3 mps 728 mmHg 21%
    17:00 +40°C° 0.3 mm 3 mps 728 mmHg 24%
    18:00 +38°C° 0.3 mm 3 mps 728 mmHg 27%
    19:00 +37°C° 0 mm 3 mps 729 mmHg 29%
    20:00 +36°C° 0 mm 3 mps 729 mmHg 31%
    21:00 +35°C° 0 mm 3 mps 729 mmHg 34%
    22:00 +35°C° 0 mm 3 mps 729 mmHg 35%
    23:00 +35°C° 0 mm 3 mps 729 mmHg 36%

    10 April, Friday

    Time Temperature Precipitation Wind Pressure Humidity
    00:00 +34°C° 0 mm 3 mps 729 mmHg 36%
    01:00 +34°C° 0 mm 3 mps 729 mmHg 39%
    02:00 +33°C° 0 mm 3 mps 729 mmHg 42%
    03:00 +31°C° 0 mm 2 mps 728 mmHg 45%
    04:00 +31°C° 0 mm 2 mps 729 mmHg 47%
    05:00 +31°C° 0 mm 2 mps 729 mmHg 48%
    06:00 +30°C° 0 mm 2 mps 729 mmHg 50%
    07:00 +32°C° 0 mm 2 mps 730 mmHg 45%
    08:00 +36°C° 0 mm 3 mps 730 mmHg 40%
    09:00 +38°C° 0 mm 3 mps 731 mmHg 35%
    10:00 +40°C° 0 mm 2 mps 730 mmHg 30%
    11:00 +41°C° 0 mm 2 mps 730 mmHg 25%
    12:00 +43°C° 0 mm 1 mps 730 mmHg 20%
    13:00 +43°C° 0 mm 3 mps 729 mmHg 22%
    14:00 +41°C° 0 mm 5 mps 728 mmHg 25%
    15:00 +40°C° 0 mm 7 mps 727 mmHg 28%
    16:00 +38°C° 0.3 mm 7 mps 728 mmHg 33%
    17:00 +35°C° 0.3 mm 6 mps 728 mmHg 37%
    18:00 +33°C° 0.3 mm 6 mps 729 mmHg 42%
    19:00 +33°C° 0 mm 6 mps 730 mmHg 43%
    20:00 +33°C° 0 mm 6 mps 730 mmHg 44%
    21:00 +32°C° 0 mm 6 mps 730 mmHg 45%
    22:00 +32°C° 0 mm 6 mps 730 mmHg 48%
    23:00 +30°C° 0 mm 6 mps 730 mmHg 51%
    Show more